AirNav   Pilot Hours Calculator
 
 517 users online  

16G Seneca County Airport
Tiffin, Ohio, USA

GOING TO TIFFIN?


FAA INFORMATION EFFECTIVE 08 OCTOBER 2020

Location

FAA Identifier: 16G
Lat/Long: 41-05-38.6000N 083-12-45.0000W
41-05.643333N 083-12.750000W
41.0940556,-83.2125000
(estimated)
Elevation: 785.9 ft. / 239.5 m (surveyed)
Variation: 05W (1985)
From city: 2 miles SW of TIFFIN, OH
Time zone: UTC -4 (UTC -5 during Standard Time)
Zip code: 44883

Airport Operations

Airport use: Open to the public
Control tower: no
ARTCC: CLEVELAND CENTER
FSS: CLEVELAND FLIGHT SERVICE STATION
NOTAMs facility: CLE (NOTAM-D service available)
Attendance: 0800-DUSK
Wind indicator: lighted
Segmented circle: yes
Lights: ACTVT MIRL RY 06/24; REIL & PAPI RYS O6 & 24 - CTAF.
Beacon: white-green (lighted land airport)
Operates sunset to sunrise.

Airport Communications

CTAF/UNICOM: 123.0
WX AWOS-3: 127.175 (419-443-1043)
TOLEDO APPROACH: 120.8
TOLEDO DEPARTURE: 120.8
WX AWOS-3 at FZI (10 nm NW): 124.625 (419-436-0053)
WX AWOS-3 at S24 (14 nm NE): 119.575 (419-547-6932)

Nearby radio navigation aids

VOR radial/distance  VOR name  Freq  Var
FBCr073/26.0FLAG CITY VORTAC108.2002W
BUDr352/(29.4)BUCKEYE VOR109.8005W
MFDr299/31.2MANSFIELD VORTAC108.8003W

 
NDB name  Hdg/Dist  Freq  Var  ID
TIFFINat field26905WTII - .. ..
PORT CLINTON218/29.842307WPCW .--. -.-. .--

Airport Services

Fuel available: 100LL JET-A
FUEL AVBL 24 HRS WITH CREDIT CARD.
Parking: hangars and tiedowns
Airframe service: MAJOR
Powerplant service: MAJOR
Bottled oxygen: HIGH
Bulk oxygen: HIGH/LOW

Runway Information

Runway 6/24

Dimensions: 4000 x 75 ft. / 1219 x 23 m
Surface: asphalt, in good condition
Runway edge lights: medium intensity
RUNWAY 6  RUNWAY 24
Latitude: 41-05.461090N41-05.824897N
Longitude: 083-13.113030W083-12.387342W
Elevation: 785.9 ft.781.1 ft.
Traffic pattern: leftleft
Runway heading: 061 magnetic, 056 true241 magnetic, 236 true
Markings: nonprecision, in good conditionnonprecision, in good condition
Visual slope indicator: 4-light PAPI on left (3.00 degrees glide path)
PAPI UNUSBL BYD 5 DEG L OF CNTRLN.
4-light PAPI on left (3.00 degrees glide path)
UNUSBL BYD 4 DEG LEFT OF CRS & 8 DEG RIGHT OF CRS.
Runway end identifier lights: yesyes
Touchdown point: yes, no lightsyes, no lights
Obstructions: 67 ft. trees, 2642 ft. from runway, 36:1 slope to clear61 ft. trees, 598 ft. from runway, 298 ft. left of centerline, 6:1 slope to clear
5.5 FT ELEC BOX 100 FT FROM THLD 195 FT LEFT.

Airport Ownership and Management from official FAA records

Ownership: Publicly-owned
Owner: SENECA COUNTY COMSN
81 JEFFERSON ST
TIFFIN, OH 44883
Phone 419-447-4550
Manager: BRAD NEWMAN
1778 W. ST. RT 224
TIFFIN, OH 44883
Phone 419-447-4263

Airport Operational Statistics

Aircraft based on the field: 36
Single engine airplanes: 25
Multi engine airplanes: 10
Jet airplanes: 1
    
Aircraft operations: avg 165/day *
68% local general aviation
23% transient general aviation
8% air taxi
<1% military
* for 12-month period ending 04 October 2018

Additional Remarks

CREW CAR AND RENTAL CARS AVBL ON THE FLD.
FOR CD CTC TOLEDO APCH AT 419-865-1495

Instrument Procedures

NOTE: All procedures below are presented as PDF files. If you need a reader for these files, you should download the free Adobe Reader.

NOT FOR NAVIGATION. Please procure official charts for flight.
FAA instrument procedures published for use from 08 October 2020 at 0901Z to 05 November 2020 at 0900Z.

 
IAPs - Instrument Approach Procedures
RNAV (GPS) RWY 06   download (194KB)
RNAV (GPS) RWY 24   download (211KB)
VOR RWY 06   download (198KB)
NDB RWY 24   download (172KB)
NOTE: Special Take-Off Minimums/Departure Procedures apply   download (164KB)

Other nearby airports with instrument procedures:

KFZI - Fostoria Metropolitan Airport (10 nm NW)
56D - Wyandot County Airport (13 nm S)
S24 - Sandusky County Regional Airport (14 nm NE)
14G - Fremont Airport (15 nm N)
KFDY - Findlay Airport (21 nm W)
 
Loc | Ops | Rwys | IFR | FBO | Links
Com | Nav | Svcs | Stats | Notes
Area around 16G (Seneca County Airport)
 
Road maps at: MapQuest Bing Google
 
Aerial photo
WARNING: Photo may not be current or correct
Aerial photo of 16G (Seneca County Airport)
Do you have a better or more recent aerial photo of Seneca County Airport that you would like to share? If so, please send us your photo.

 
Sectional chart

 
Airport distance calculator
Flying to Seneca County Airport? Find the distance to fly.

From to 16G

Sunrise and sunset
Times for 29-Oct-2020
 Local
(UTC-4)
 Zulu
(UTC)
Morning civil twilight07:3411:34
Sunrise08:0312:03
Sunset18:3122:31
Evening civil twilight18:5922:59

Current date and time
Zulu (UTC)  29-Oct-2020 10:49:35
Local (UTC-4)  29-Oct-2020 06:49:35
 
METAR
KFDY 
21nm W 
290953Z AUTO 04007KT 4SM -RA BR OVC049 08/07 A2980 RMK AO2 SLP089 P0006 T00830067
KMNN 
29nm S 
291010Z AUTO 03009KT 4SM -RA BR FEW008 BKN047 OVC070 08/06 A2979 RMK AO2 P0002 T00780061
KPCW 
30nm NE 
291035Z AUTO 00000KT 6SM BR FEW039 BKN060 OVC075 08/07 A2980 RMK AO2
KTDZ 
31nm NW 
290953Z AUTO 04003KT 10SM BKN110 08/06 A2983 RMK AO2 RAB33E48 SLP102 P0000 T00780056
KOWX 
35nm W 
291035Z AUTO 04005KT 4SM SCT041 BKN060 OVC085 07/05 A2982 RMK AO1
KMFD 
36nm SE 
291036Z 03007KT 5SM RA BR SCT003 OVC035 07/07 A2978 RMK AO2 P0014 T00720067 $
KTOL 
40nm NW 
290952Z 00000KT 10SM FEW085 OVC110 07/04 A2981 RMK AO2 RAB0858E50 PRESFR SLP098 P0000 T00670044 $
TAF
KFDY 
21nm W 
290534Z 2906/3006 VRB05KT P6SM -SHRA SCT025 OVC040 FM290800 03010KT 4SM -RA BR SCT005 OVC025 FM292000 36010KT P6SM -SHRA SCT005 OVC030 FM300000 36010KT P6SM SCT004 OVC020
NOTAMs
Click for the latest NOTAMs
NOTAMs are issued by the DoD/FAA and will open in a separate window not controlled by AirNav.

 

 
 

FBO, Fuel Providers, and Aircraft Ground Support

  
 Business Name 
 
 Contact 
 
 Services / Description 
 
Fuel Prices
 
Comments
  
Tiffin Aire 419-447-4263
no information available

If you are affiliated with Tiffin Aire and would like to show here your services, contact info, web link, logo, and more, click here
100LL Jet A
FS $3.84 $3.17 
 Updated 21-Oct-2020
 
   11 read write
FS=Full service
Update Fuel Prices
 

Would you like to see your business listed on this page?

 If your business provides an interesting product or service to pilots, flight crews, aircraft, or users of the Seneca County Airport, you should consider listing it here.  To start the listing process, click on the button below
 
Add a business
 

Other Pages about Seneca County Airport

Update a link
 
Copyright © AirNav, LLC. All rights reserved. Privacy Policy  Contact